EVE835 LSGG-FACT

Flight info

Callsign EVE835
Flight time N/A
Altitude 33000
Route BALSI UN852 DIVKO UM154 SOSUR DCT BALEN DCT KAMER UM998 BOD UR978 ATAFA/N0485F350 UR978 AS UA604 KAN UR986 APIRO/N0479F370 UR986 NLY/N0480F360 UH455 ARASI/N0478F370 UG861 MESIN UY339 LIKAD UR526 VNA UT942 ARGOL UN187 ANVAG/N0469F390 UN187 VEDRY/N0475F380 UN185 OKLOK UQ23 CSV UZ26 ERDAS ERDAS1B
Aircraft A339/H-SADE1E2E3GHIJ3J5M1P2RWXY/LB2D1

Departure

Time 2026-05-08 00:00
Airport Geneva International Airport (LSGG)

Arrival

Time N/A
Airport Cape Town International Airport (FACT)
Time Latitude Longitude Altitude Speed Heading
2026-05-07 23:44 46.23289 6.10906 1398 ft 0 kts 135°
2026-05-07 23:48 46.23294 6.10898 1398 ft 2 kts 135°
2026-05-07 23:48 46.23305 6.10883 1397 ft 2 kts 134°
2026-05-07 23:49 46.23316 6.10868 1397 ft 2 kts 149°
2026-05-07 23:49 46.23330 6.10860 1396 ft 2 kts 171°
2026-05-07 23:49 46.23344 6.10859 1395 ft 2 kts 189°
2026-05-07 23:49 46.23359 6.10865 1395 ft 2 kts 208°
2026-05-07 23:50 46.23370 6.10876 1395 ft 0 kts 224°
2026-05-07 23:50 46.23373 6.10880 1395 ft 0 kts 226°
2026-05-07 23:52 46.23366 6.10869 1395 ft 3 kts 226°
2026-05-07 23:52 46.23352 6.10814 1394 ft 8 kts 275°
2026-05-07 23:52 46.23401 6.10727 1392 ft 13 kts 318°
2026-05-07 23:53 46.23469 6.10731 1390 ft 11 kts 39°
2026-05-07 23:53 46.23537 6.10830 1388 ft 15 kts 45°
2026-05-07 23:53 46.23620 6.10953 1387 ft 18 kts 46°
2026-05-07 23:53 46.23712 6.11089 1384 ft 19 kts 45°
2026-05-07 23:54 46.23815 6.11239 1381 ft 21 kts 45°
2026-05-07 23:54 46.23921 6.11394 1380 ft 21 kts 45°
2026-05-07 23:54 46.24029 6.11553 1379 ft 22 kts 45°
2026-05-07 23:54 46.24136 6.11711 1376 ft 23 kts 45°
2026-05-07 23:55 46.24253 6.11883 1374 ft 23 kts 45°
2026-05-07 23:55 46.24368 6.12052 1374 ft 23 kts 45°
2026-05-07 23:55 46.24476 6.12210 1375 ft 21 kts 45°
2026-05-07 23:55 46.24583 6.12367 1375 ft 21 kts 45°
2026-05-07 23:56 46.24689 6.12522 1374 ft 21 kts 45°
2026-05-07 23:56 46.24796 6.12672 1372 ft 18 kts 31°
2026-05-07 23:56 46.24924 6.12727 1368 ft 18 kts 14°
2026-05-07 23:56 46.25016 6.12721 1368 ft 9 kts 326°
2026-05-07 23:57 46.25015 6.12671 1368 ft 4 kts 226°
2026-05-07 23:57 46.25013 6.12669 1369 ft 0 kts 225°
2026-05-07 23:57 46.25017 6.12676 1368 ft 3 kts 225°
2026-05-07 23:57 46.25024 6.12685 1368 ft 0 kts 225°
2026-05-07 23:58 46.25025 6.12686 1368 ft 0 kts 225°
2026-05-07 23:58 46.25026 6.12688 1368 ft 0 kts 225°
2026-05-07 23:58 46.25028 6.12690 1368 ft 0 kts 225°
2026-05-07 23:58 46.25029 6.12693 1368 ft 0 kts 225°
2026-05-07 23:59 46.25031 6.12695 1368 ft 0 kts 225°
2026-05-07 23:59 46.24979 6.12618 1370 ft 35 kts 226°
2026-05-07 23:59 46.24656 6.12140 1376 ft 94 kts 225°
2026-05-07 23:59 46.24068 6.11276 1380 ft 144 kts 225°
2026-05-08 00:00 46.23262 6.10091 1398 ft 184 kts 225°
2026-05-08 00:00 46.22321 6.08706 1731 ft 196 kts 226°
2026-05-08 00:00 46.21366 6.07269 2309 ft 199 kts 227°
2026-05-08 00:00 46.20399 6.05819 2954 ft 200 kts 226°
2026-05-08 00:01 46.19426 6.04415 3489 ft 198 kts 226°
2026-05-08 00:01 46.18437 6.02995 3859 ft 201 kts 226°
2026-05-08 00:01 46.17451 6.01565 4256 ft 203 kts 226°
2026-05-08 00:01 46.16445 6.00102 4627 ft 206 kts 225°
2026-05-08 00:02 46.15399 5.98561 4857 ft 218 kts 226°
2026-05-08 00:02 46.14313 5.96942 5086 ft 230 kts 226°
2026-05-08 00:02 46.13177 5.95247 5332 ft 243 kts 226°
2026-05-08 00:02 46.11953 5.93426 5587 ft 256 kts 226°
2026-05-08 00:03 46.10676 5.91528 5845 ft 270 kts 226°
2026-05-08 00:03 46.09335 5.89537 6201 ft 280 kts 226°
2026-05-08 00:03 46.07977 5.87529 6743 ft 281 kts 224°
2026-05-08 00:03 46.06353 5.85979 7286 ft 282 kts 198°
2026-05-08 00:04 46.04399 5.85677 7831 ft 282 kts 174°
2026-05-08 00:04 46.02460 5.86016 8374 ft 283 kts 172°
2026-05-08 00:04 46.00501 5.86413 8884 ft 285 kts 172°
2026-05-08 00:04 45.98510 5.86802 9381 ft 287 kts 173°
2026-05-08 00:05 45.96518 5.87174 9887 ft 289 kts 174°
2026-05-08 00:05 45.94525 5.87536 10377 ft 292 kts 174°
2026-05-08 00:05 45.92461 5.87916 10826 ft 296 kts 174°
2026-05-08 00:05 45.90411 5.88295 11329 ft 298 kts 174°
2026-05-08 00:06 45.88337 5.88680 11859 ft 299 kts 174°
2026-05-08 00:06 45.86252 5.89065 12393 ft 300 kts 174°
2026-05-08 00:06 45.84185 5.89445 12881 ft 302 kts 174°
2026-05-08 00:06 45.82107 5.89826 13347 ft 305 kts 174°
2026-05-08 00:07 45.79974 5.90216 13809 ft 308 kts 174°
2026-05-08 00:07 45.77858 5.90604 14262 ft 310 kts 174°
2026-05-08 00:07 45.75699 5.91001 14724 ft 313 kts 174°
2026-05-08 00:07 45.73518 5.91401 15182 ft 316 kts 174°
2026-05-08 00:08 45.71337 5.91800 15630 ft 318 kts 174°
2026-05-08 00:08 45.69146 5.92200 16102 ft 320 kts 174°
2026-05-08 00:08 45.66955 5.92598 16629 ft 320 kts 174°
2026-05-08 00:08 45.64753 5.93000 17095 ft 321 kts 174°
2026-05-08 00:09 45.62530 5.93406 17536 ft 324 kts 174°
2026-05-08 00:09 45.60273 5.93817 17982 ft 326 kts 174°
2026-05-08 00:09 45.58210 5.94192 18374 ft 328 kts 174°
2026-05-08 00:09 45.55786 5.94633 18827 ft 330 kts 174°
2026-05-08 00:10 45.53508 5.95046 19245 ft 333 kts 174°
2026-05-08 00:10 45.51211 5.95463 19655 ft 335 kts 175°
2026-05-08 00:10 45.48867 5.95723 20001 ft 338 kts 183°
2026-05-08 00:10 45.46521 5.95344 20172 ft 345 kts 194°
2026-05-08 00:11 45.44190 5.94336 20350 ft 353 kts 200°
2026-05-08 00:11 45.41818 5.93124 20527 ft 362 kts 201°
2026-05-08 00:11 45.39451 5.91898 20696 ft 371 kts 201°
2026-05-08 00:11 45.37966 5.91131 20800 ft 376 kts 201°
2026-05-08 00:12 45.34549 5.89376 21024 ft 388 kts 201°
2026-05-08 00:12 45.31970 5.88059 21189 ft 396 kts 201°
2026-05-08 00:12 45.29303 5.86700 21349 ft 405 kts 201°
2026-05-08 00:12 45.26638 5.85346 21503 ft 413 kts 201°
2026-05-08 00:13 45.23880 5.83947 21730 ft 419 kts 201°
2026-05-08 00:13 45.21139 5.82559 22070 ft 421 kts 201°
2026-05-08 00:13 45.18370 5.81159 22445 ft 423 kts 201°
2026-05-08 00:13 45.15566 5.79744 22803 ft 425 kts 201°
2026-05-08 00:14 45.12769 5.78332 23148 ft 426 kts 201°
2026-05-08 00:14 45.09982 5.76928 23481 ft 428 kts 201°
2026-05-08 00:14 45.07149 5.75501 23806 ft 430 kts 201°
2026-05-08 00:14 45.04333 5.74085 24118 ft 432 kts 201°
2026-05-08 00:15 45.01479 5.72650 24440 ft 433 kts 201°
2026-05-08 00:15 44.98628 5.71218 24761 ft 434 kts 201°
2026-05-08 00:15 44.95786 5.69793 25079 ft 435 kts 201°
2026-05-08 00:15 44.92928 5.68361 25388 ft 437 kts 201°
2026-05-08 00:16 44.90028 5.66910 25695 ft 438 kts 201°
2026-05-08 00:16 44.87399 5.65595 25976 ft 438 kts 201°
2026-05-08 00:16 44.84479 5.64138 26284 ft 439 kts 201°
2026-05-08 00:16 44.81594 5.62699 26583 ft 440 kts 201°
2026-05-08 00:17 44.78706 5.61260 26866 ft 441 kts 201°
2026-05-08 00:17 44.75825 5.59825 27151 ft 441 kts 201°
2026-05-08 00:17 44.72925 5.58383 27463 ft 441 kts 201°
2026-05-08 00:17 44.70029 5.56945 27861 ft 439 kts 201°
2026-05-08 00:18 44.67183 5.55534 28271 ft 436 kts 201°
2026-05-08 00:18 44.64543 5.54225 28642 ft 433 kts 201°
2026-05-08 00:18 44.61530 5.52734 29048 ft 430 kts 201°
2026-05-08 00:18 44.58664 5.51316 29440 ft 428 kts 201°
2026-05-08 00:19 44.55880 5.49941 29809 ft 425 kts 201°
2026-05-08 00:19 44.53062 5.48548 30170 ft 422 kts 201°
2026-05-08 00:19 44.50302 5.47187 30488 ft 421 kts 201°
2026-05-08 00:19 44.47517 5.45817 30753 ft 420 kts 201°
2026-05-08 00:20 44.44780 5.44471 31008 ft 420 kts 201°
2026-05-08 00:20 44.42010 5.43109 31256 ft 419 kts 201°
2026-05-08 00:20 44.39263 5.41758 31481 ft 419 kts 201°
2026-05-08 00:20 44.36525 5.40415 31695 ft 419 kts 201°
2026-05-08 00:21 44.33765 5.39062 31910 ft 419 kts 201°
2026-05-08 00:21 44.31007 5.37712 32122 ft 419 kts 201°
2026-05-08 00:21 44.28249 5.36363 32359 ft 418 kts 201°
2026-05-08 00:21 44.25485 5.35013 32594 ft 417 kts 202°
2026-05-08 00:22 44.22762 5.33684 32810 ft 416 kts 201°
2026-05-08 00:22 44.20026 5.32350 33017 ft 416 kts 201°
2026-05-08 00:22 44.17275 5.31010 33227 ft 416 kts 201°
2026-05-08 00:22 44.14528 5.29672 33422 ft 415 kts 201°
2026-05-08 00:23 44.11807 5.28350 33577 ft 416 kts 201°
2026-05-08 00:23 44.09061 5.27015 33714 ft 417 kts 201°
2026-05-08 00:23 44.06317 5.25682 33863 ft 417 kts 201°
2026-05-08 00:23 44.03560 5.24345 34014 ft 418 kts 201°
2026-05-08 00:24 44.00843 5.23029 34156 ft 418 kts 201°
2026-05-08 00:24 43.98077 5.21690 34312 ft 418 kts 201°
2026-05-08 00:24 43.95348 5.20371 34558 ft 416 kts 201°
2026-05-08 00:24 43.92612 5.19050 34769 ft 414 kts 201°
2026-05-08 00:25 43.89921 5.17753 34902 ft 415 kts 201°
2026-05-08 00:25 43.87177 5.16430 35004 ft 416 kts 201°
2026-05-08 00:25 43.81656 5.13771 35013 ft 423 kts 201°
2026-05-08 00:26 43.76072 5.11088 35014 ft 425 kts 201°
2026-05-08 00:26 43.70519 5.08427 35014 ft 425 kts 201°
2026-05-08 00:27 43.64912 5.05745 35013 ft 425 kts 201°
2026-05-08 00:27 43.59311 5.03070 35014 ft 425 kts 201°
2026-05-08 00:28 43.53703 5.00398 35014 ft 426 kts 201°
2026-05-08 00:28 43.48074 4.97721 35012 ft 427 kts 201°
2026-05-08 00:29 43.42484 4.95069 35010 ft 427 kts 201°
2026-05-08 00:29 43.36823 4.92386 35007 ft 426 kts 201°
2026-05-08 00:30 43.31171 4.89715 35004 ft 427 kts 201°
2026-05-08 00:30 43.25568 4.87071 35001 ft 427 kts 201°
2026-05-08 00:31 43.19920 4.84413 34998 ft 428 kts 201°
2026-05-08 00:31 43.14275 4.81833 34995 ft 428 kts 197°
2026-05-08 00:32 43.08401 4.80353 34998 ft 432 kts 188°
2026-05-08 00:32 43.02367 4.80365 35004 ft 436 kts 178°
2026-05-08 00:33 42.96366 4.81915 35010 ft 442 kts 168°
2026-05-08 00:33 42.90493 4.84468 35012 ft 442 kts 166°
2026-05-08 00:34 42.84619 4.87088 35012 ft 442 kts 166°
2026-05-08 00:34 42.78797 4.89679 35009 ft 442 kts 166°
2026-05-08 00:35 42.72949 4.92273 35006 ft 442 kts 166°
2026-05-08 00:35 42.67075 4.94873 35003 ft 442 kts 166°
2026-05-08 00:36 42.61224 4.97457 35000 ft 442 kts 166°
2026-05-08 00:36 42.55369 5.00038 34997 ft 442 kts 166°
2026-05-08 00:37 42.49503 5.02619 34994 ft 442 kts 166°
2026-05-08 00:38 42.40726 5.06473 34990 ft 442 kts 166°
2026-05-08 00:38 42.34885 5.09032 34989 ft 442 kts 166°
2026-05-08 00:39 42.29001 5.11606 34989 ft 442 kts 166°
2026-05-08 00:39 42.23117 5.14173 34989 ft 442 kts 166°
2026-05-08 00:40 42.17222 5.16741 34989 ft 442 kts 166°
2026-05-08 00:40 42.11342 5.19298 34989 ft 442 kts 166°
2026-05-08 00:41 42.05499 5.21833 34989 ft 442 kts 166°
2026-05-08 00:41 41.99555 5.24406 34989 ft 442 kts 166°
2026-05-08 00:42 41.93654 5.26955 34989 ft 446 kts 166°
2026-05-08 00:42 41.87744 5.29504 34991 ft 446 kts 166°
2026-05-08 00:43 41.81769 5.32076 34989 ft 446 kts 166°
2026-05-08 00:43 41.75812 5.34636 34989 ft 446 kts 166°
2026-05-08 00:44 41.69850 5.37192 34989 ft 446 kts 166°
2026-05-08 00:44 41.63881 5.39747 34989 ft 446 kts 166°
2026-05-08 00:45 41.57921 5.42292 34989 ft 447 kts 166°
2026-05-08 00:45 41.51977 5.44825 34989 ft 447 kts 166°
2026-05-08 00:46 41.45997 5.47371 34989 ft 448 kts 166°
2026-05-08 00:46 41.39974 5.49929 34989 ft 448 kts 166°
2026-05-08 00:47 41.33990 5.52465 34989 ft 448 kts 166°
2026-05-08 00:47 41.28030 5.54986 34989 ft 449 kts 167°
2026-05-08 00:48 41.22004 5.57531 34989 ft 449 kts 167°
2026-05-08 00:48 41.15990 5.60063 34989 ft 450 kts 166°
2026-05-08 00:49 41.09974 5.62594 34989 ft 451 kts 166°
2026-05-08 00:49 41.03927 5.65133 34989 ft 451 kts 167°
2026-05-08 00:50 40.97885 5.67644 34988 ft 451 kts 168°
2026-05-08 00:50 40.91768 5.69587 34989 ft 448 kts 174°
2026-05-08 00:51 40.85604 5.70902 34990 ft 448 kts 175°
2026-05-08 00:51 40.79416 5.72207 34989 ft 448 kts 175°
2026-05-08 00:52 40.73173 5.73518 34989 ft 449 kts 175°
2026-05-08 00:52 40.66963 5.74818 34989 ft 449 kts 175°
2026-05-08 00:53 40.60787 5.76106 34989 ft 450 kts 175°
2026-05-08 00:53 40.54564 5.77402 34989 ft 450 kts 175°
2026-05-08 00:54 40.48328 5.78700 34987 ft 450 kts 175°
2026-05-08 00:54 40.42073 5.79998 34986 ft 451 kts 175°
2026-05-08 00:55 40.35865 5.81284 34985 ft 451 kts 175°
2026-05-08 00:55 40.29670 5.82564 34983 ft 451 kts 175°
2026-05-08 00:56 40.23419 5.83854 34981 ft 451 kts 175°
2026-05-08 00:56 40.17178 5.85140 34980 ft 451 kts 175°
2026-05-08 00:57 40.10940 5.86422 34979 ft 451 kts 175°
2026-05-08 00:57 40.04693 5.87704 34977 ft 451 kts 175°
2026-05-08 00:58 39.98490 5.88975 34975 ft 451 kts 175°
2026-05-08 00:58 39.92248 5.90251 34974 ft 451 kts 175°
2026-05-08 00:59 39.86010 5.91524 34973 ft 451 kts 175°
2026-05-08 00:59 39.79738 5.92802 34972 ft 452 kts 175°
2026-05-08 01:00 39.73519 5.94067 34970 ft 451 kts 175°
2026-05-08 01:00 39.67270 5.95335 34968 ft 452 kts 175°
2026-05-08 01:01 39.61008 5.96604 34965 ft 453 kts 176°
2026-05-08 01:01 39.54801 5.97858 34957 ft 454 kts 176°
2026-05-08 01:02 39.48548 5.99121 34946 ft 455 kts 176°
2026-05-08 01:02 39.42202 6.00399 34940 ft 456 kts 176°
2026-05-08 01:03 39.35982 6.01651 34936 ft 455 kts 176°
2026-05-08 01:03 39.29668 6.02919 34934 ft 456 kts 176°
2026-05-08 01:04 39.23401 6.04175 34934 ft 457 kts 176°
2026-05-08 01:04 39.17044 6.05447 34934 ft 459 kts 177°
2026-05-08 01:05 39.10633 6.06726 34934 ft 460 kts 177°
2026-05-08 01:05 39.04241 6.08001 34934 ft 462 kts 177°
2026-05-08 01:06 38.97830 6.09276 34934 ft 464 kts 177°
2026-05-08 01:06 38.91420 6.10552 34934 ft 465 kts 178°
2026-05-08 01:07 38.84976 6.11834 34934 ft 466 kts 178°
2026-05-08 01:07 38.78522 6.13114 34934 ft 468 kts 178°
2026-05-08 01:08 38.72017 6.14402 34934 ft 470 kts 178°